Miscellaneous Local Product
Issued by NWS Hastings, NE

Home | Current Version | Previous Version | Text Only | Print | Product List | Glossary Off
Versions: 1 2 3 4 5 6 7 8 9 10 11 12 13 14 15 16 17 18 19 20 21 22 23 24 25 26 27 28 29 30 31 32 33 34 35 36 37 38 39 40 41 42 43 44 45 46 47 48 49 50

000
AXUS43 KGID 221002
MISGRI

GID CWA HOURLY WEATHER ROUNDUP
NATIONAL WEATHER SERVICE HASTINGS NE
500 AM CDT WED OCT 22 2014

NOTE: "FAIR" INDICATES FEW OR NO CLOUDS BELOW 12,000 FEET WITH NO
SIGNIFICANT WEATHER AND/OR OBSTRUCTIONS TO VISIBILITY.

...SOUTH CENTRAL NEBRASKA...

CITY           SKY/WX    TMP DP  RH WIND       PRES   REMARKS
GRAND ISLAND   CLEAR     57  53  86 S16G24    29.99S
HASTINGS       CLEAR     57  53  86 SE13      30.00R
KEARNEY        CLEAR     55  52  88 SE12      29.98S
ORD            PTCLDY    53  51  93 SE8       29.94S
YORK           CLEAR     54  46  76 SE12      30.03S
AURORA         CLEAR     55  51  86 SE10G17   30.01S FOG
LEXINGTON      MOCLDY    61  53  74 S14       29.93S
HOLDREGE       CLEAR     56  52  88 S8        29.96F
HEBRON         CLEAR     58  52  80 S10       30.04R

...NEBRASKA PANHANDLE...

CITY           SKY/WX    TMP DP  RH WIND       PRES   REMARKS
CHADRON        CLOUDY    57  49  74 SW6       29.89F
ALLIANCE       CLOUDY    56  48  74 W13       29.92R
SCOTTSBLUFF    CLOUDY    53  52  96 NW5       29.93F
SIDNEY         CLOUDY    55  45  68 NW10      29.96R

...WESTERN AND NORTH CENTRAL NEBRASKA...

CITY           SKY/WX    TMP DP  RH WIND       PRES   REMARKS
VALENTINE      MOCLDY    61  52  72 S8        29.85R
AINSWORTH      MOCLDY    58  53  83 S15       29.87S
ONEILL         CLEAR     56  50  80 S15       29.92F
BROKEN BOW     PTCLDY    57  53  86 SE7       29.93S
IMPERIAL       MOCLDY    57  46  66 CALM      29.92R
NORTH PLATTE   CLOUDY    61  50  67 S10       29.90S
MCCOOK         MOCLDY    59  50  72 S9        29.93S

...EASTERN NEBRASKA...

CITY           SKY/WX    TMP DP  RH WIND       PRES   REMARKS
NORFOLK        CLEAR     57  44  62 SE15      30.00S
SO SIOUX CITY  CLEAR     54  45  71 SE10      30.06S
TEKAMAH        CLEAR     53  44  71 SE12      30.08S
COLUMBUS       CLEAR     57  43  58 SE14      30.04S
ALBION         CLEAR     54  45  73 SE7       29.99S
OMAHA EPPLEY   MOCLDY    55  44  66 SE15      30.10S
OFFUTT AFB     PTCLDY    53  49  86 E10       30.10R
MILLARD        CLEAR     53  45  76 SE6       30.09S
LINCOLN        MOCLDY    56  43  61 SE12      30.08S
NEBRASKA CITY  CLEAR     53  41  63 SE10      30.11R
BEATRICE       CLEAR     55  45  67 SE9       30.07R
FALLS CITY     CLOUDY    55  45  68 SE9       30.11R

...NORTHERN KANSAS...

CITY           SKY/WX    TMP DP  RH WIND       PRES   REMARKS
GOODLAND       MOCLDY    53  47  79 S10       29.95S
HILL CITY      CLEAR     59  51  75 S9        29.98S
NORTON         SUNNY     57  46  67 S9        29.95S
PHILLIPSBURG   CLEAR     59  54  82 E5        29.98S
SMITH CENTER   CLEAR     55  52  88 SE9       30.00S
BELOIT         CLEAR     59  57  94 SE8       30.01S
HAYS           CLEAR     54  46  76 S7        30.01R
RUSSELL        CLEAR     57  53  86 S12       30.00S
CONCORDIA      CLEAR     59  56  89 S14       30.04R
SALINA         CLEAR     59  56  89 SE9       30.05R
TOPEKA         CLOUDY    57  48  72 E6        30.13R



USA.gov is the U.S. government's official web portal to all federal, state and local government web resources and services.